Location: Gökben Yaylas?
(36.8988°N, 29.6291°E)
Time: 15:44:30
(UTC+00:00)

Cosmos 2322 Rocket - Pass Details

Date: 15 May 2026
Orbit: 831 x 850 km, 71.0° (Epoch: 10 June)

Event Time Altitude Azimuth Distance (km) Brightness Sun altitude
Rises 20:38:43 0° 329° (NNW) 3,406 6.5 -31.0°
Reaches altitude 10° 20:41:18 10° 322° (NW) 2,470 5.4 -31.2°
Enters shadow 20:45:43 37° 274° (W) 1,303 3.3 -31.5°
